BAW323 EGLL-LFMN

Flight info

Callsign BAW323
Flight time 1h 40m
Altitude 33000
Route MODMI M185 MID L612 BOGNA UL612 VEULE DCT KOTAP DCT KETEX DCT KOTIS DCT KUKOR DCT UTUVA DCT LERGA DCT LIQID DCT LATAM DCT TUNUR DCT NISAR
Aircraft A20N/M-SDE2E3FGHIRWXY/LB1

Departure

Time 2026-05-04 20:35
Airport London Heathrow Airport (EGLL)

Arrival

Time 2026-05-04 22:16
Airport Nice-Côte d'Azur Airport (LFMN)
Time Latitude Longitude Altitude Speed Heading
2026-05-04 19:56 51.47187 -0.48606 87 ft 0 kts 269°
2026-05-04 20:23 51.47187 -0.48604 90 ft 3 kts 269°
2026-05-04 20:23 51.47187 -0.48560 87 ft 4 kts 269°
2026-05-04 20:23 51.47188 -0.48517 86 ft 4 kts 265°
2026-05-04 20:24 51.47191 -0.48487 88 ft 2 kts 236°
2026-05-04 20:24 51.47199 -0.48476 89 ft 2 kts 185°
2026-05-04 20:24 51.47204 -0.48475 88 ft 4 kts 180°
2026-05-04 20:24 51.47187 -0.48475 88 ft 2 kts 180°
2026-05-04 20:25 51.47186 -0.48475 88 ft 0 kts 180°
2026-05-04 20:25 51.47184 -0.48475 88 ft 1 kts 180°
2026-05-04 20:26 51.47178 -0.48475 87 ft 0 kts 180°
2026-05-04 20:29 51.47177 -0.48475 81 ft 1 kts 180°
2026-05-04 20:29 51.47148 -0.48475 86 ft 7 kts 180°
2026-05-04 20:30 51.47086 -0.48474 86 ft 11 kts 179°
2026-05-04 20:30 51.47048 -0.48390 90 ft 9 kts 115°
2026-05-04 20:30 51.46987 -0.48359 88 ft 10 kts 176°
2026-05-04 20:30 51.46912 -0.48357 89 ft 0 kts 179°
2026-05-04 20:31 51.46908 -0.48357 89 ft 3 kts 181°
2026-05-04 20:31 51.46865 -0.48357 89 ft 9 kts 179°
2026-05-04 20:31 51.46821 -0.48356 88 ft 0 kts 179°
2026-05-04 20:32 51.46775 -0.48356 86 ft 11 kts 181°
2026-05-04 20:33 51.46742 -0.48449 86 ft 12 kts 266°
2026-05-04 20:33 51.46740 -0.48592 86 ft 14 kts 270°
2026-05-04 20:33 51.46722 -0.48743 91 ft 14 kts 220°
2026-05-04 20:33 51.46636 -0.48753 86 ft 13 kts 192°
2026-05-04 20:34 51.46540 -0.48796 87 ft 15 kts 183°
2026-05-04 20:34 51.46477 -0.48693 90 ft 14 kts 94°
2026-05-04 20:34 51.46479 -0.48513 88 ft 25 kts 90°
2026-05-04 20:34 51.46483 -0.47876 88 ft 90 kts 90°
2026-05-04 20:35 51.46483 -0.46571 91 ft 141 kts 90°
2026-05-04 20:35 51.46484 -0.44780 211 ft 171 kts 88°
2026-05-04 20:35 51.46476 -0.42925 972 ft 163 kts 88°
2026-05-04 20:35 51.46388 -0.41180 1806 ft 155 kts 103°
2026-05-04 20:36 51.45905 -0.39548 2278 ft 172 kts 120°
2026-05-04 20:36 51.45145 -0.37931 2587 ft 195 kts 134°
2026-05-04 20:36 51.43864 -0.36665 2701 ft 248 kts 159°
2026-05-04 20:36 51.42004 -0.36165 2904 ft 289 kts 174°
2026-05-04 20:37 51.40001 -0.36225 3914 ft 285 kts 190°
2026-05-04 20:37 51.38109 -0.37180 4268 ft 281 kts 205°
2026-05-04 20:37 51.36396 -0.38471 4535 ft 265 kts 206°
2026-05-04 20:37 51.34723 -0.39780 5080 ft 270 kts 207°
2026-05-04 20:38 51.33028 -0.41110 5593 ft 274 kts 207°
2026-05-04 20:38 51.31329 -0.42437 5718 ft 272 kts 206°
2026-05-04 20:38 51.29623 -0.43767 5842 ft 273 kts 206°
2026-05-04 20:38 51.27912 -0.45098 5960 ft 273 kts 206°
2026-05-04 20:39 51.26223 -0.46408 5993 ft 274 kts 206°
2026-05-04 20:39 51.24490 -0.47751 5997 ft 274 kts 206°
2026-05-04 20:39 51.22796 -0.49063 6000 ft 274 kts 206°
2026-05-04 20:39 51.21079 -0.50391 5998 ft 275 kts 206°
2026-05-04 20:40 51.19361 -0.51723 5992 ft 275 kts 206°
2026-05-04 20:40 51.17639 -0.53057 6000 ft 275 kts 206°
2026-05-04 20:40 51.15917 -0.54389 6022 ft 274 kts 206°
2026-05-04 20:40 51.14201 -0.55716 6333 ft 275 kts 206°
2026-05-04 20:41 51.12478 -0.57046 6899 ft 276 kts 206°
2026-05-04 20:41 51.10743 -0.58385 7521 ft 278 kts 206°
2026-05-04 20:41 51.08990 -0.59737 8156 ft 280 kts 206°
2026-05-04 20:41 51.07221 -0.61056 8797 ft 281 kts 199°
2026-05-04 20:42 51.05299 -0.61465 9455 ft 283 kts 173°
2026-05-04 20:42 51.03435 -0.60475 10104 ft 288 kts 148°
2026-05-04 20:42 51.01739 -0.58692 10714 ft 297 kts 145°
2026-05-04 20:42 51.00006 -0.56805 11345 ft 306 kts 145°
2026-05-04 20:43 50.98226 -0.54868 11984 ft 314 kts 145°
2026-05-04 20:43 50.96416 -0.52916 12625 ft 322 kts 145°
2026-05-04 20:43 50.94540 -0.50907 13287 ft 329 kts 145°
2026-05-04 20:43 50.92620 -0.48862 13945 ft 336 kts 145°
2026-05-04 20:44 50.90649 -0.46768 14551 ft 343 kts 145°
2026-05-04 20:44 50.88647 -0.44643 15165 ft 349 kts 145°
2026-05-04 20:44 50.86623 -0.42496 15788 ft 354 kts 145°
2026-05-04 20:44 50.84565 -0.40316 16426 ft 357 kts 146°
2026-05-04 20:45 50.82493 -0.38123 17078 ft 361 kts 146°
2026-05-04 20:45 50.80414 -0.35925 17735 ft 363 kts 146°
2026-05-04 20:45 50.78306 -0.33699 18400 ft 366 kts 146°
2026-05-04 20:45 50.76187 -0.31463 18995 ft 367 kts 146°
2026-05-04 20:46 50.74056 -0.29217 19605 ft 368 kts 146°
2026-05-04 20:46 50.71918 -0.26966 20224 ft 369 kts 146°
2026-05-04 20:46 50.69779 -0.24717 20856 ft 370 kts 147°
2026-05-04 20:46 50.67636 -0.22464 21502 ft 370 kts 147°
2026-05-04 20:47 50.65494 -0.20215 22145 ft 370 kts 147°
2026-05-04 20:47 50.63344 -0.17961 22703 ft 372 kts 147°
2026-05-04 20:47 50.61183 -0.15696 23256 ft 374 kts 147°
2026-05-04 20:47 50.59006 -0.13418 23778 ft 376 kts 148°
2026-05-04 20:48 50.56822 -0.11134 24247 ft 378 kts 148°
2026-05-04 20:48 50.54629 -0.08845 24724 ft 379 kts 148°
2026-05-04 20:48 50.52427 -0.06548 25210 ft 380 kts 148°
2026-05-04 20:48 50.50223 -0.04252 25698 ft 380 kts 148°
2026-05-04 20:49 50.48022 -0.01963 26207 ft 379 kts 148°
2026-05-04 20:49 50.45825 0.00321 26714 ft 379 kts 148°
2026-05-04 20:49 50.43630 0.02600 27247 ft 377 kts 148°
2026-05-04 20:49 50.41446 0.04864 27758 ft 375 kts 148°
2026-05-04 20:50 50.39298 0.07090 28295 ft 373 kts 149°
2026-05-04 20:50 50.37142 0.09320 28816 ft 371 kts 149°
2026-05-04 20:50 50.34990 0.11542 29234 ft 371 kts 149°
2026-05-04 20:50 50.32835 0.13763 29664 ft 370 kts 149°
2026-05-04 20:51 50.30686 0.15975 30086 ft 369 kts 149°
2026-05-04 20:51 50.28534 0.18186 30366 ft 371 kts 149°
2026-05-04 20:51 50.26364 0.20415 30619 ft 374 kts 149°
2026-05-04 20:51 50.24922 0.21893 30783 ft 375 kts 149°
2026-05-04 20:52 50.22731 0.24140 31045 ft 377 kts 150°
2026-05-04 20:52 50.20530 0.26394 31292 ft 380 kts 150°
2026-05-04 20:52 50.18319 0.28661 31550 ft 381 kts 150°
2026-05-04 20:52 50.16093 0.30953 31802 ft 383 kts 150°
2026-05-04 20:53 50.13866 0.33245 32068 ft 384 kts 150°
2026-05-04 20:53 50.11627 0.35547 32334 ft 386 kts 150°
2026-05-04 20:53 50.09384 0.37848 32597 ft 387 kts 150°
2026-05-04 20:53 50.07133 0.40155 32872 ft 387 kts 150°
2026-05-04 20:54 50.04864 0.42476 32978 ft 392 kts 150°
2026-05-04 20:54 50.02563 0.44824 33002 ft 399 kts 150°
2026-05-04 20:54 49.97827 0.49650 32999 ft 414 kts 150°
2026-05-04 20:55 49.92932 0.54630 32994 ft 427 kts 150°
2026-05-04 20:55 49.87942 0.59702 32990 ft 428 kts 150°
2026-05-04 20:56 49.83021 0.64800 32986 ft 429 kts 148°
2026-05-04 20:56 49.78180 0.70236 32983 ft 430 kts 148°
2026-05-04 20:57 49.73326 0.75665 32978 ft 430 kts 148°
2026-05-04 20:57 49.68459 0.81044 32978 ft 430 kts 148°
2026-05-04 20:58 49.63578 0.86410 32981 ft 431 kts 149°
2026-05-04 20:58 49.58695 0.91765 32985 ft 431 kts 149°
2026-05-04 20:59 49.53802 0.97118 32987 ft 431 kts 149°
2026-05-04 20:59 49.48940 1.02424 32993 ft 431 kts 149°
2026-05-04 21:00 49.44040 1.07758 33005 ft 431 kts 149°
2026-05-04 21:00 49.39137 1.13082 32993 ft 430 kts 149°
2026-05-04 21:01 49.34265 1.18361 32992 ft 429 kts 149°
2026-05-04 21:01 49.29384 1.23633 32991 ft 429 kts 149°
2026-05-04 21:02 49.24510 1.28887 32985 ft 429 kts 149°
2026-05-04 21:02 49.19662 1.34099 32977 ft 428 kts 149°
2026-05-04 21:03 49.14786 1.39331 32963 ft 428 kts 149°
2026-05-04 21:03 49.09908 1.44550 32952 ft 428 kts 149°
2026-05-04 21:04 49.05015 1.49772 32961 ft 429 kts 150°
2026-05-04 21:04 49.00111 1.54994 32962 ft 429 kts 150°
2026-05-04 21:05 48.95229 1.60182 32956 ft 427 kts 150°
2026-05-04 21:05 48.90383 1.65315 32953 ft 427 kts 150°
2026-05-04 21:06 48.85511 1.70465 32946 ft 426 kts 150°
2026-05-04 21:06 48.80640 1.75601 32941 ft 426 kts 150°
2026-05-04 21:07 48.75775 1.80719 32945 ft 426 kts 150°
2026-05-04 21:07 48.70902 1.85834 32937 ft 426 kts 150°
2026-05-04 21:08 48.66029 1.90936 32941 ft 426 kts 150°
2026-05-04 21:08 48.61153 1.96029 32941 ft 426 kts 150°
2026-05-04 21:09 48.56308 2.01078 32939 ft 425 kts 150°
2026-05-04 21:09 48.51436 2.06143 32937 ft 425 kts 150°
2026-05-04 21:10 48.46553 2.11206 32937 ft 425 kts 150°
2026-05-04 21:10 48.41676 2.16253 32939 ft 425 kts 150°
2026-05-04 21:11 48.36797 2.21289 32917 ft 425 kts 150°
2026-05-04 21:11 48.31917 2.26296 32919 ft 423 kts 152°
2026-05-04 21:12 48.26744 2.30331 32925 ft 416 kts 163°
2026-05-04 21:12 48.21282 2.32837 32920 ft 412 kts 169°
2026-05-04 21:13 48.15741 2.35012 32918 ft 412 kts 169°
2026-05-04 21:13 48.10236 2.37495 32921 ft 414 kts 166°
2026-05-04 21:14 48.04767 2.40233 32921 ft 414 kts 166°
2026-05-04 21:14 47.99295 2.42956 32922 ft 414 kts 166°
2026-05-04 21:15 47.93819 2.45671 32929 ft 415 kts 166°
2026-05-04 21:15 47.88338 2.48382 32926 ft 415 kts 166°
2026-05-04 21:16 47.82885 2.51074 32928 ft 415 kts 166°
2026-05-04 21:16 47.77396 2.53777 32927 ft 415 kts 166°
2026-05-04 21:17 47.71904 2.56476 32928 ft 416 kts 166°
2026-05-04 21:17 47.66408 2.59171 32925 ft 416 kts 166°
2026-05-04 21:18 47.60909 2.61861 32923 ft 416 kts 166°
2026-05-04 21:18 47.55420 2.64541 32923 ft 416 kts 166°
2026-05-04 21:19 47.49927 2.67217 32922 ft 415 kts 166°
2026-05-04 21:19 47.44434 2.69887 32919 ft 415 kts 166°
2026-05-04 21:20 47.38950 2.72546 32918 ft 415 kts 166°
2026-05-04 21:20 47.33494 2.75186 32922 ft 415 kts 166°
2026-05-04 21:21 47.28013 2.77833 32923 ft 414 kts 166°
2026-05-04 21:21 47.22538 2.80471 32919 ft 414 kts 166°
2026-05-04 21:22 47.17059 2.83103 32911 ft 413 kts 166°
2026-05-04 21:22 47.11590 2.85725 32905 ft 413 kts 166°
2026-05-04 21:23 47.06138 2.88334 32909 ft 412 kts 166°
2026-05-04 21:23 47.00689 2.90935 32900 ft 411 kts 166°
2026-05-04 21:24 46.95248 2.93526 32900 ft 411 kts 166°
2026-05-04 21:24 46.89842 2.96096 32896 ft 411 kts 166°
2026-05-04 21:25 46.84394 2.98680 32895 ft 411 kts 166°
2026-05-04 21:25 46.78957 3.01254 32899 ft 411 kts 166°
2026-05-04 21:26 46.73520 3.03822 32897 ft 410 kts 166°
2026-05-04 21:26 46.68077 3.06387 32900 ft 410 kts 166°
2026-05-04 21:27 46.62643 3.08943 32902 ft 410 kts 166°
2026-05-04 21:27 46.57242 3.11478 32906 ft 410 kts 166°
2026-05-04 21:28 46.51805 3.14085 32912 ft 411 kts 164°
2026-05-04 21:28 46.46441 3.17024 32914 ft 412 kts 163°
2026-05-04 21:29 46.41084 3.19962 32918 ft 411 kts 163°
2026-05-04 21:29 46.35720 3.22855 32925 ft 411 kts 163°
2026-05-04 21:30 46.30395 3.25709 32927 ft 410 kts 164°
2026-05-04 21:30 46.25039 3.28573 32929 ft 409 kts 164°
2026-05-04 21:31 46.17031 3.32845 32929 ft 408 kts 163°
2026-05-04 21:32 46.11735 3.35663 32933 ft 407 kts 163°
2026-05-04 21:32 46.06430 3.38479 32930 ft 406 kts 163°
2026-05-04 21:33 46.01136 3.41285 32926 ft 405 kts 163°
2026-05-04 21:33 45.95859 3.44076 32930 ft 403 kts 163°
2026-05-04 21:34 45.90594 3.46855 32922 ft 403 kts 163°
2026-05-04 21:34 45.85329 3.49550 32920 ft 400 kts 167°
2026-05-04 21:35 45.79988 3.51842 32923 ft 400 kts 166°
2026-05-04 21:35 45.74651 3.54139 32918 ft 400 kts 166°
2026-05-04 21:36 45.69360 3.56415 32912 ft 400 kts 166°
2026-05-04 21:36 45.64037 3.58699 32916 ft 400 kts 166°
2026-05-04 21:37 45.58695 3.60986 32938 ft 403 kts 166°
2026-05-04 21:37 45.53319 3.63285 32937 ft 404 kts 166°
2026-05-04 21:38 45.47934 3.65583 32951 ft 404 kts 166°
2026-05-04 21:38 45.43441 3.67497 32956 ft 405 kts 166°
2026-05-04 21:39 45.38044 3.69791 32956 ft 405 kts 166°
2026-05-04 21:39 45.32645 3.72082 32953 ft 404 kts 166°
2026-05-04 21:40 45.27414 3.75082 32939 ft 410 kts 152°
2026-05-04 21:40 45.25130 3.77543 32930 ft 416 kts 141°
2026-05-04 21:40 45.23179 3.80626 32952 ft 425 kts 131°
2026-05-04 21:41 45.19951 3.87696 32960 ft 430 kts 128°
2026-05-04 21:41 45.16714 3.94828 32958 ft 430 kts 128°
2026-05-04 21:42 45.13464 4.01946 32959 ft 430 kts 128°
2026-05-04 21:42 45.10205 4.09063 32963 ft 430 kts 128°
2026-05-04 21:43 45.06966 4.16122 32960 ft 430 kts 128°
2026-05-04 21:43 45.03666 4.23164 32959 ft 427 kts 132°
2026-05-04 21:44 44.99796 4.29455 32955 ft 423 kts 137°
2026-05-04 21:44 44.95798 4.35585 32964 ft 425 kts 137°
2026-05-04 21:45 44.91778 4.41754 32976 ft 429 kts 137°
2026-05-04 21:45 44.87774 4.47892 32975 ft 427 kts 137°
2026-05-04 21:46 44.83736 4.54061 32971 ft 429 kts 137°
2026-05-04 21:46 44.79689 4.60235 32973 ft 429 kts 137°
2026-05-04 21:47 44.75629 4.66413 32972 ft 430 kts 138°
2026-05-04 21:47 44.71560 4.72593 32969 ft 430 kts 138°
2026-05-04 21:48 44.67508 4.78733 32972 ft 430 kts 138°
2026-05-04 21:48 44.63432 4.84897 32962 ft 431 kts 137°
2026-05-04 21:49 44.59463 4.91216 32958 ft 432 kts 136°
2026-05-04 21:49 44.55511 4.97591 32952 ft 432 kts 136°
2026-05-04 21:50 44.51549 5.03920 32951 ft 432 kts 136°
2026-05-04 21:50 44.47568 5.10248 32946 ft 433 kts 136°
2026-05-04 21:51 44.43577 5.16582 32945 ft 434 kts 137°
2026-05-04 21:51 44.39566 5.22931 32957 ft 437 kts 137°
2026-05-04 21:52 44.35275 5.28787 32876 ft 429 kts 147°
2026-05-04 21:52 44.32917 5.31349 32358 ft 430 kts 147°
2026-05-04 21:52 44.30541 5.33921 31440 ft 435 kts 147°
2026-05-04 21:52 44.28151 5.36514 30692 ft 435 kts 146°
2026-05-04 21:53 44.25800 5.39071 30096 ft 432 kts 146°
2026-05-04 21:53 44.23440 5.41638 29391 ft 429 kts 146°
2026-05-04 21:53 44.21093 5.44190 28697 ft 426 kts 146°
2026-05-04 21:53 44.18765 5.46718 28033 ft 423 kts 146°
2026-05-04 21:54 44.16449 5.49230 27357 ft 419 kts 146°
2026-05-04 21:54 44.14154 5.51717 26715 ft 416 kts 146°
2026-05-04 21:54 44.11871 5.54186 26106 ft 415 kts 146°
2026-05-04 21:54 44.09604 5.56639 25696 ft 409 kts 146°
2026-05-04 21:55 44.07385 5.59040 25565 ft 400 kts 146°
2026-05-04 21:55 44.05167 5.61432 25565 ft 408 kts 146°
2026-05-04 21:55 44.02946 5.63823 25562 ft 409 kts 146°
2026-05-04 21:55 44.00700 5.66244 25561 ft 407 kts 146°
2026-05-04 21:56 43.98461 5.68655 25559 ft 408 kts 146°
2026-05-04 21:56 43.96212 5.71074 25561 ft 408 kts 146°
2026-05-04 21:56 43.93970 5.73484 25549 ft 408 kts 146°
2026-05-04 21:56 43.91724 5.75894 25554 ft 408 kts 146°
2026-05-04 21:57 43.89475 5.78306 25561 ft 409 kts 146°
2026-05-04 21:57 43.87223 5.80717 25614 ft 408 kts 146°
2026-05-04 21:57 43.84977 5.83121 25639 ft 409 kts 146°
2026-05-04 21:57 43.82717 5.85534 25382 ft 410 kts 146°
2026-05-04 21:58 43.80463 5.87939 24873 ft 409 kts 146°
2026-05-04 21:58 43.78208 5.90341 24239 ft 409 kts 146°
2026-05-04 21:58 43.75957 5.92737 23617 ft 408 kts 146°
2026-05-04 21:58 43.73705 5.95133 22885 ft 407 kts 146°
2026-05-04 21:59 43.71467 5.97512 22142 ft 406 kts 146°
2026-05-04 21:59 43.69273 5.99843 21360 ft 399 kts 146°
2026-05-04 21:59 43.67089 6.02162 20607 ft 393 kts 146°
2026-05-04 21:59 43.64937 6.04444 19865 ft 387 kts 146°
2026-05-04 22:00 43.62820 6.06687 19147 ft 381 kts 146°
2026-05-04 22:00 43.60810 6.09021 18443 ft 378 kts 137°
2026-05-04 22:00 43.59221 6.11911 17662 ft 378 kts 123°
2026-05-04 22:00 43.58152 6.15211 16880 ft 376 kts 114°
2026-05-04 22:01 43.57245 6.18570 16132 ft 372 kts 114°
2026-05-04 22:01 43.56340 6.21892 15390 ft 368 kts 114°
2026-05-04 22:01 43.55441 6.25171 14672 ft 364 kts 114°
2026-05-04 22:01 43.54542 6.28436 13970 ft 362 kts 114°
2026-05-04 22:02 43.53647 6.31675 13202 ft 362 kts 114°
2026-05-04 22:02 43.52755 6.34899 12533 ft 357 kts 114°
2026-05-04 22:02 43.51904 6.37984 12249 ft 341 kts 114°
2026-05-04 22:02 43.51080 6.40946 12079 ft 321 kts 116°
2026-05-04 22:03 43.50071 6.43564 11962 ft 299 kts 127°
2026-05-04 22:03 43.48818 6.45744 11908 ft 290 kts 136°
2026-05-04 22:03 43.47397 6.47757 11591 ft 293 kts 137°
2026-05-04 22:03 43.46003 6.49754 11222 ft 286 kts 136°
2026-05-04 22:04 43.44635 6.51727 10850 ft 283 kts 136°
2026-05-04 22:04 43.43277 6.53686 10486 ft 282 kts 136°
2026-05-04 22:04 43.41929 6.55630 10129 ft 279 kts 136°
2026-05-04 22:04 43.40593 6.57554 9754 ft 276 kts 136°
2026-05-04 22:05 43.39302 6.59504 9344 ft 277 kts 127°
2026-05-04 22:05 43.38528 6.61947 8747 ft 284 kts 102°
2026-05-04 22:05 43.38486 6.64661 8263 ft 281 kts 91°
2026-05-04 22:05 43.38557 6.67283 8080 ft 280 kts 91°
2026-05-04 22:06 43.38618 6.69981 8018 ft 280 kts 91°
2026-05-04 22:06 43.38674 6.72601 8038 ft 266 kts 92°
2026-05-04 22:06 43.38723 6.75062 8024 ft 249 kts 92°
2026-05-04 22:06 43.38766 6.77344 8029 ft 229 kts 92°
2026-05-04 22:07 43.38803 6.79503 7888 ft 227 kts 92°
2026-05-04 22:07 43.38830 6.81377 7575 ft 227 kts 92°
2026-05-04 22:07 43.38937 6.83561 6967 ft 236 kts 78°
2026-05-04 22:07 43.39741 6.85606 6253 ft 254 kts 50°
2026-05-04 22:08 43.40974 6.87314 5933 ft 252 kts 47°
2026-05-04 22:08 43.42226 6.88996 5620 ft 251 kts 47°
2026-05-04 22:08 43.43460 6.90653 5334 ft 247 kts 47°
2026-05-04 22:08 43.44673 6.92301 5029 ft 242 kts 47°
2026-05-04 22:09 43.45866 6.93903 4759 ft 235 kts 47°
2026-05-04 22:09 43.47002 6.95442 4660 ft 223 kts 47°
2026-05-04 22:09 43.48071 6.96905 4521 ft 209 kts 48°
2026-05-04 22:09 43.49050 6.98242 4328 ft 188 kts 48°
2026-05-04 22:10 43.49923 6.99437 4151 ft 168 kts 49°
2026-05-04 22:10 43.50764 7.00596 3958 ft 172 kts 49°
2026-05-04 22:10 43.51600 7.01740 3741 ft 166 kts 49°
2026-05-04 22:10 43.52387 7.02816 3528 ft 153 kts 49°
2026-05-04 22:11 43.53113 7.03812 3336 ft 143 kts 49°
2026-05-04 22:11 43.53826 7.04794 3155 ft 145 kts 49°
2026-05-04 22:11 43.54531 7.05761 2960 ft 144 kts 49°
2026-05-04 22:11 43.55210 7.06689 2782 ft 131 kts 49°
2026-05-04 22:12 43.55850 7.07569 2601 ft 132 kts 49°
2026-05-04 22:12 43.56497 7.08459 2430 ft 131 kts 49°
2026-05-04 22:12 43.57141 7.09344 2257 ft 133 kts 49°
2026-05-04 22:12 43.57792 7.10237 2074 ft 129 kts 48°
2026-05-04 22:13 43.58429 7.11112 1929 ft 131 kts 47°
2026-05-04 22:13 43.59083 7.12011 1752 ft 133 kts 47°
2026-05-04 22:13 43.59721 7.12887 1559 ft 125 kts 46°
2026-05-04 22:13 43.60346 7.13747 1393 ft 130 kts 46°
2026-05-04 22:14 43.60996 7.14642 1234 ft 134 kts 44°
2026-05-04 22:14 43.61651 7.15573 998 ft 139 kts 44°
2026-05-04 22:14 43.62305 7.16499 813 ft 131 kts 41°
2026-05-04 22:14 43.62973 7.17388 656 ft 133 kts 41°
2026-05-04 22:15 43.63623 7.18275 487 ft 129 kts 43°
2026-05-04 22:15 43.64263 7.19160 350 ft 130 kts 44°
2026-05-04 22:15 43.64915 7.20037 155 ft 131 kts 44°
2026-05-04 22:15 43.65560 7.20922 22 ft 123 kts 46°
2026-05-04 22:16 43.66022 7.21561 20 ft 64 kts 44°
2026-05-04 22:16 43.66232 7.21852 21 ft 35 kts 45°
2026-05-04 22:16 43.66406 7.22006 23 ft 25 kts 20°
2026-05-04 22:16 43.66489 7.22047 20 ft 6 kts 19°
2026-05-04 22:17 43.66536 7.22049 22 ft 7 kts 331°
2026-05-04 22:17 43.66579 7.21991 21 ft 9 kts 315°
2026-05-04 22:17 43.66611 7.21948 21 ft 6 kts 315°
2026-05-04 22:17 43.66638 7.21910 21 ft 4 kts 315°
2026-05-04 22:18 43.66648 7.21869 21 ft 6 kts 266°
2026-05-04 22:18 43.66619 7.21816 21 ft 9 kts 225°
2026-05-04 22:18 43.66568 7.21748 21 ft 12 kts 224°
2026-05-04 22:18 43.66515 7.21675 21 ft 10 kts 224°
2026-05-04 22:19 43.66466 7.21608 21 ft 10 kts 227°
2026-05-04 22:19 43.66421 7.21547 21 ft 9 kts 224°
2026-05-04 22:19 43.66380 7.21491 21 ft 9 kts 224°
2026-05-04 22:19 43.66353 7.21425 21 ft 9 kts 264°
2026-05-04 22:20 43.66345 7.21371 23 ft 3 kts 257°
2026-05-04 22:20 43.66340 7.21329 21 ft 6 kts 263°
2026-05-04 22:20 43.66340 7.21320 21 ft 0 kts 281°
2026-05-04 22:20 43.66343 7.21319 21 ft 1 kts 312°
2026-05-04 22:21 43.66361 7.21307 21 ft 2 kts 346°
2026-05-04 22:21 43.66382 7.21302 21 ft 3 kts 349°
2026-05-04 22:21 43.66392 7.21299 23 ft 2 kts 350°
2026-05-04 22:21 43.66402 7.21297 21 ft 2 kts 351°
2026-05-04 22:22 43.66406 7.21296 21 ft 0 kts 351°